Time,TemperatureF,DewpointF,PressureIn,WindDirection,WindDirectionDegrees,WindSpeedMPH,WindSpeedGustMPH,Humidity,HourlyPrecipIn,Conditions,Clouds,dailyrainin,SolarRadiationWatts/m^2,SoftwareType,DateUTC
2013-07-20 00:02:00,58.0,57.0,-100.00,SSW,203,2.0,3.0,96,0.00,,,0.60,0.000000,,2013-07-20 05:02:00,
2013-07-20 00:12:00,58.0,57.0,-100.00,SSW,203,2.0,3.0,96,0.00,,,0.60,0.000000,,2013-07-20 05:12:00,
2013-07-20 00:22:00,58.0,57.0,-100.00,SSW,203,2.0,3.0,96,0.00,,,0.60,0.000000,,2013-07-20 05:22:00,
2013-07-20 00:32:00,58.0,57.0,-100.00,SSW,203,2.0,3.0,96,0.00,,,0.60,0.000000,,2013-07-20 05:32:00,
2013-07-20 01:01:00,63.0,56.0,-100.00,NNW,328,3.0,6.0,77,0.00,,,0.60,0.000000,,2013-07-20 06:01:00,
2013-07-20 01:11:00,63.0,56.0,-100.00,NNW,328,3.0,6.0,77,0.00,,,0.60,0.000000,,2013-07-20 06:11:00,
2013-07-20 01:21:00,63.0,56.0,-100.00,NNW,328,3.0,6.0,77,0.00,,,0.60,0.000000,,2013-07-20 06:21:00,
2013-07-20 01:32:00,63.0,56.0,-100.00,NNW,328,3.0,6.0,77,0.00,,,0.60,0.000000,,2013-07-20 06:32:00,
2013-07-20 02:01:00,63.0,56.0,-100.00,WSW,242,2.0,6.0,77,0.00,,,0.60,0.000000,,2013-07-20 07:01:00,
2013-07-20 02:12:00,63.0,56.0,-100.00,WSW,242,2.0,6.0,77,0.00,,,0.60,0.000000,,2013-07-20 07:12:00,
2013-07-20 02:22:00,63.0,56.0,-100.00,WSW,242,2.0,6.0,77,0.00,,,0.60,0.000000,,2013-07-20 07:22:00,
2013-07-20 02:33:00,63.0,56.0,-100.00,WSW,242,2.0,6.0,77,0.00,,,0.60,0.000000,,2013-07-20 07:33:00,
2013-07-20 03:02:00,61.0,56.0,-100.00,SW,229,2.0,4.0,83,0.00,,,0.60,0.000000,,2013-07-20 08:02:00,
2013-07-20 03:11:00,61.0,56.0,-100.00,SW,229,2.0,4.0,83,0.00,,,0.60,0.000000,,2013-07-20 08:11:00,
2013-07-20 03:22:00,61.0,56.0,-100.00,SW,229,2.0,4.0,83,0.00,,,0.60,0.000000,,2013-07-20 08:22:00,
2013-07-20 03:32:00,61.0,56.0,-100.00,SW,229,2.0,4.0,83,0.00,,,0.60,0.000000,,2013-07-20 08:32:00,
2013-07-20 04:02:00,59.0,55.0,-100.00,NNW,341,2.0,6.0,88,0.00,,,0.58,0.000000,,2013-07-20 09:02:00,
2013-07-20 04:11:00,59.0,55.0,-100.00,NNW,341,2.0,6.0,88,0.00,,,0.58,0.000000,,2013-07-20 09:11:00,
2013-07-20 04:22:00,59.0,55.0,-100.00,NNW,341,2.0,6.0,88,0.00,,,0.58,0.000000,,2013-07-20 09:22:00,
2013-07-20 04:33:00,59.0,55.0,-100.00,NNW,341,2.0,6.0,88,0.00,,,0.58,0.000000,,2013-07-20 09:33:00,
2013-07-20 05:01:00,58.0,54.0,-100.00,NE,34,5.0,11.0,87,0.00,,,0.44,0.000000,,2013-07-20 10:01:00,
2013-07-20 05:11:00,58.0,54.0,-100.00,NE,34,5.0,11.0,87,0.00,,,0.44,0.000000,,2013-07-20 10:11:00,
2013-07-20 05:22:00,58.0,54.0,-100.00,NE,34,5.0,11.0,87,0.00,,,0.44,0.000000,,2013-07-20 10:22:00,
2013-07-20 05:32:00,58.0,54.0,-100.00,NE,34,5.0,11.0,87,0.00,,,0.44,0.000000,,2013-07-20 10:32:00,
2013-07-20 06:02:00,56.0,52.0,-100.00,NNE,26,2.0,5.0,88,0.00,,,0.44,2.000000,,2013-07-20 11:02:00,
2013-07-20 06:11:00,56.0,52.0,-100.00,NNE,26,2.0,5.0,88,0.00,,,0.44,2.000000,,2013-07-20 11:11:00,
2013-07-20 06:22:00,56.0,52.0,-100.00,NNE,26,2.0,5.0,88,0.00,,,0.44,2.000000,,2013-07-20 11:22:00,
2013-07-20 06:32:00,56.0,52.0,-100.00,NNE,26,2.0,5.0,88,0.00,,,0.44,2.000000,,2013-07-20 11:32:00,
2013-07-20 07:01:00,57.0,53.0,-100.00,NE,35,3.0,6.0,86,0.00,,,0.44,59.000000,,2013-07-20 12:01:00,
2013-07-20 07:11:00,57.0,53.0,-100.00,NE,35,3.0,6.0,86,0.00,,,0.44,59.000000,,2013-07-20 12:11:00,
2013-07-20 07:22:00,57.0,53.0,-100.00,NE,35,3.0,6.0,86,0.00,,,0.44,59.000000,,2013-07-20 12:22:00,
2013-07-20 07:32:00,57.0,53.0,-100.00,NE,35,3.0,6.0,86,0.00,,,0.44,59.000000,,2013-07-20 12:32:00,
2013-07-20 08:01:00,59.0,52.0,-100.00,NNE,16,5.0,9.0,78,0.00,,,0.44,215.000000,,2013-07-20 13:01:00,
2013-07-20 08:11:00,59.0,52.0,-100.00,NNE,16,5.0,9.0,78,0.00,,,0.44,215.000000,,2013-07-20 13:11:00,
2013-07-20 08:22:00,59.0,52.0,-100.00,NNE,16,5.0,9.0,78,0.00,,,0.44,215.000000,,2013-07-20 13:22:00,
2013-07-20 08:32:00,59.0,52.0,-100.00,NNE,16,5.0,9.0,78,0.00,,,0.44,215.000000,,2013-07-20 13:32:00,
2013-07-20 09:02:00,61.0,45.0,-100.00,ENE,64,6.0,11.0,56,0.00,,,0.44,416.000000,,2013-07-20 14:02:00,
2013-07-20 09:11:00,61.0,45.0,-100.00,ENE,64,6.0,11.0,56,0.00,,,0.44,416.000000,,2013-07-20 14:11:00,
2013-07-20 09:22:00,61.0,45.0,-100.00,ENE,64,6.0,11.0,56,0.00,,,0.44,416.000000,,2013-07-20 14:22:00,
2013-07-20 09:32:00,61.0,45.0,-100.00,ENE,64,6.0,11.0,56,0.00,,,0.44,416.000000,,2013-07-20 14:32:00,
2013-07-20 10:01:00,62.0,44.0,-100.00,NNE,12,5.0,9.0,52,0.00,,,0.44,615.000000,,2013-07-20 15:01:00,
2013-07-20 10:11:00,62.0,44.0,-100.00,NNE,12,5.0,9.0,52,0.00,,,0.44,615.000000,,2013-07-20 15:11:00,
2013-07-20 10:22:00,62.0,44.0,-100.00,NNE,12,5.0,9.0,52,0.00,,,0.44,615.000000,,2013-07-20 15:22:00,
2013-07-20 10:33:00,62.0,44.0,-100.00,NNE,12,5.0,9.0,52,0.00,,,0.44,615.000000,,2013-07-20 15:33:00,
2013-07-20 11:01:00,64.0,44.0,-100.00,NNE,17,5.0,9.0,49,0.00,,,0.00,795.000000,,2013-07-20 16:01:00,
2013-07-20 11:11:00,64.0,44.0,-100.00,NNE,17,5.0,9.0,49,0.00,,,0.00,795.000000,,2013-07-20 16:11:00,
2013-07-20 11:22:00,64.0,44.0,-100.00,NNE,17,5.0,9.0,49,0.00,,,0.00,795.000000,,2013-07-20 16:22:00,
2013-07-20 11:32:00,64.0,44.0,-100.00,NNE,17,5.0,9.0,49,0.00,,,0.00,795.000000,,2013-07-20 16:32:00,
2013-07-20 12:02:00,65.0,46.0,-100.00,NNE,12,6.0,13.0,51,0.00,,,0.00,932.000000,,2013-07-20 17:02:00,
2013-07-20 12:11:00,65.0,46.0,-100.00,NNE,12,6.0,13.0,51,0.00,,,0.00,932.000000,,2013-07-20 17:11:00,
2013-07-20 12:22:00,65.0,46.0,-100.00,NNE,12,6.0,13.0,51,0.00,,,0.00,932.000000,,2013-07-20 17:22:00,
2013-07-20 12:32:00,65.0,46.0,-100.00,NNE,12,6.0,13.0,51,0.00,,,0.00,932.000000,,2013-07-20 17:32:00,
2013-07-20 13:01:00,67.0,47.0,-100.00,North,11,7.0,14.0,48,0.00,,,0.00,1049.000000,,2013-07-20 18:01:00,
2013-07-20 13:24:00,67.0,47.0,-100.00,North,11,7.0,14.0,48,0.00,,,0.00,1049.000000,,2013-07-20 18:24:00,
2013-07-20 13:36:00,67.0,47.0,-100.00,North,11,7.0,14.0,48,0.00,,,0.00,1049.000000,,2013-07-20 18:36:00,
2013-07-20 14:05:00,67.0,45.0,-100.00,NE,39,6.0,15.0,45,0.00,,,0.00,988.000000,,2013-07-20 19:05:00,
2013-07-20 14:15:00,67.0,45.0,-100.00,NE,39,6.0,15.0,45,0.00,,,0.00,988.000000,,2013-07-20 19:15:00,
2013-07-20 14:26:00,67.0,45.0,-100.00,NE,39,6.0,15.0,45,0.00,,,0.00,988.000000,,2013-07-20 19:26:00,
2013-07-20 14:35:00,67.0,45.0,-100.00,NE,39,6.0,15.0,45,0.00,,,0.00,988.000000,,2013-07-20 19:35:00,
2013-07-20 15:06:00,67.0,46.0,-100.00,North,11,7.0,13.0,46,0.00,,,0.00,914.000000,,2013-07-20 20:06:00,
2013-07-20 15:23:00,67.0,46.0,-100.00,North,11,7.0,13.0,46,0.00,,,0.00,914.000000,,2013-07-20 20:23:00,
2013-07-20 15:33:00,67.0,46.0,-100.00,North,11,7.0,13.0,46,0.00,,,0.00,914.000000,,2013-07-20 20:33:00,
2013-07-20 16:05:00,67.0,44.0,-100.00,North,10,7.0,14.0,43,0.00,,,0.00,802.000000,,2013-07-20 21:05:00,
2013-07-20 16:14:00,67.0,44.0,-100.00,North,10,7.0,14.0,43,0.00,,,0.00,802.000000,,2013-07-20 21:14:00,
2013-07-20 16:27:00,67.0,44.0,-100.00,North,10,7.0,14.0,43,0.00,,,0.00,802.000000,,2013-07-20 21:27:00,
2013-07-20 16:34:00,67.0,44.0,-100.00,North,10,7.0,14.0,43,0.00,,,0.00,802.000000,,2013-07-20 21:34:00,
2013-07-20 17:06:00,68.0,46.0,-100.00,NNE,30,5.0,12.0,45,0.00,,,0.00,527.000000,,2013-07-20 22:06:00,
2013-07-20 17:16:00,68.0,46.0,-100.00,NNE,30,5.0,12.0,45,0.00,,,0.00,527.000000,,2013-07-20 22:16:00,
2013-07-20 17:25:00,68.0,46.0,-100.00,NNE,30,5.0,12.0,45,0.00,,,0.00,527.000000,,2013-07-20 22:25:00,
2013-07-20 17:34:00,68.0,46.0,-100.00,NNE,30,5.0,12.0,45,0.00,,,0.00,527.000000,,2013-07-20 22:34:00,
2013-07-20 18:04:00,67.0,44.0,-100.00,NNE,13,6.0,11.0,43,0.00,,,0.00,533.000000,,2013-07-20 23:04:00,
2013-07-20 18:17:00,67.0,44.0,-100.00,NNE,13,6.0,11.0,43,0.00,,,0.00,533.000000,,2013-07-20 23:17:00,
2013-07-20 18:36:00,67.0,44.0,-100.00,NNE,13,6.0,11.0,43,0.00,,,0.00,533.000000,,2013-07-20 23:36:00,
2013-07-20 19:17:00,66.0,45.0,-100.00,NNE,22,5.0,10.0,46,0.00,,,0.00,449.000000,,2013-07-21 00:17:00,
2013-07-20 19:23:00,66.0,45.0,-100.00,NNE,22,5.0,10.0,46,0.00,,,0.00,449.000000,,2013-07-21 00:23:00,
2013-07-20 20:06:00,63.0,45.0,-100.00,NNE,28,5.0,9.0,52,0.00,,,0.00,276.000000,,2013-07-21 01:06:00,
2013-07-20 20:12:00,63.0,45.0,-100.00,NNE,28,5.0,9.0,52,0.00,,,0.00,276.000000,,2013-07-21 01:12:00,
2013-07-20 20:36:00,63.0,45.0,-100.00,NNE,28,5.0,9.0,52,0.00,,,0.00,276.000000,,2013-07-21 01:36:00,
2013-07-20 21:06:00,58.0,45.0,-100.00,NE,40,3.0,7.0,62,0.00,,,0.00,78.000000,,2013-07-21 02:06:00,
2013-07-20 21:17:00,58.0,45.0,-100.00,NE,40,3.0,7.0,62,0.00,,,0.00,78.000000,,2013-07-21 02:17:00,
2013-07-20 21:26:00,58.0,45.0,-100.00,NE,40,3.0,7.0,62,0.00,,,0.00,78.000000,,2013-07-21 02:26:00,
2013-07-20 21:36:00,58.0,45.0,-100.00,NE,40,3.0,7.0,62,0.00,,,0.00,78.000000,,2013-07-21 02:36:00,
2013-07-20 22:04:00,50.0,46.0,-100.00,South,188,0.0,2.0,87,0.00,,,0.00,2.000000,,2013-07-21 03:04:00,
2013-07-20 22:14:00,50.0,46.0,-100.00,South,188,0.0,2.0,87,0.00,,,0.00,2.000000,,2013-07-21 03:14:00,
2013-07-20 22:25:00,50.0,46.0,-100.00,South,188,0.0,2.0,87,0.00,,,0.00,2.000000,,2013-07-21 03:25:00,
2013-07-20 22:35:00,50.0,46.0,-100.00,South,188,0.0,2.0,87,0.00,,,0.00,2.000000,,2013-07-21 03:35:00,
2013-07-20 23:01:00,47.0,45.0,-100.00,South,175,0.0,0.0,93,0.00,,,0.00,0.000000,,2013-07-21 04:01:00,
2013-07-20 23:11:00,47.0,45.0,-100.00,South,175,0.0,0.0,93,0.00,,,0.00,0.000000,,2013-07-21 04:11:00,
2013-07-20 23:22:00,47.0,45.0,-100.00,South,175,0.0,0.0,93,0.00,,,0.00,0.000000,,2013-07-21 04:22:00,
2013-07-20 23:32:00,47.0,45.0,-100.00,South,175,0.0,0.0,93,0.00,,,0.00,0.000000,,2013-07-21 04:32:00,